Date String (YYYY-MM-DD hh:mm:ss) UTC,Instrument flags,absolute air pressure of the measurement (hPa),sample flow rate (lpm),inlet stack bypass flow (lpm),air temperature of the measurement (°C),ambient temperature measured by the external sensor (°C),aerosol sample conditioner tube jacket temperature (°C),OPC LED temperature (°C),internal box temperature (°C),relative humidity of the measurement (%),span deviation,mass concentration of particles derived from Lorenz-Mie calculation of OPC scattering (μg/m³),mass concentration of particles derived from Lorenz-Mie calculation of OPC scattering (μg/m³),mass concentration of particles derived from Lorenz-Mie calculation of OPC scattering (μg/m³)
DateTimeUTC,F1_M11,P_M11,Q1_M11,Q2_M11,T1_M11,T2_M11,T3_M11,T4_M11,T5_M11,U1_M11,ZSPAN_M11,X0_M11,X2_M11,X1_M11
2023-09-08 04:00:00,SystemResetWarning,0834.8,4.98,000.00,028.2,026.3,000.0,036.4,029.7,15.3,0000.0,0012.53,0003.18,0001.58
2023-09-08 04:01:00,SystemResetWarning,0834.6,5.00,000.00,028.0,024.9,000.0,036.3,029.3,14.8,0000.0,0012.39,0003.20,0001.59
2023-09-08 04:02:00,SystemResetWarning,0834.9,5.01,000.00,028.0,024.7,000.0,036.3,029.3,15.3,0000.0,0012.02,0003.22,0001.59
2023-09-08 04:03:00,SystemResetWarning,0834.8,5.01,000.00,027.9,024.9,000.0,036.3,029.2,15.7,0000.0,0012.12,0003.22,0001.59
2023-09-08 04:04:00,SystemResetWarning,0835.0,4.99,000.00,027.9,025.3,000.0,036.3,029.3,15.6,0000.0,0011.60,0003.22,0001.58
2023-09-08 04:05:00,SystemResetWarning,0834.8,5.00,000.00,027.9,025.6,000.0,036.3,029.4,15.5,0000.0,0011.19,0003.24,0001.57
2023-09-08 04:06:00,SystemResetWarning,0834.7,5.00,000.00,027.9,025.9,000.0,036.3,029.5,15.5,0000.0,0011.33,0003.24,0001.57
2023-09-08 04:07:00,SystemResetWarning,0834.8,5.01,000.00,027.9,026.2,000.0,036.3,029.6,15.5,0000.0,0011.81,0003.24,0001.58
2023-09-08 04:08:00,SystemResetWarning,0834.8,4.99,000.00,028.0,026.5,000.0,036.3,029.6,15.5,0000.0,0011.26,0003.23,0001.59
2023-09-08 04:09:00,SystemResetWarning,0834.7,5.00,000.00,028.0,026.7,000.0,036.3,029.7,15.5,0000.0,0010.92,0003.25,0001.61
2023-09-08 04:10:00,SystemResetWarning,0835.0,4.99,000.00,028.1,026.9,000.0,036.4,029.8,15.5,0000.0,0011.42,0003.24,0001.61
2023-09-08 04:11:00,SystemResetWarning,0835.4,5.00,000.00,028.1,027.0,000.0,036.4,029.8,15.4,0000.0,0011.59,0003.25,0001.60
2023-09-08 04:12:00,SystemResetWarning,0835.4,5.01,000.00,028.2,027.1,000.0,036.4,029.9,15.4,0000.0,0011.50,0003.22,0001.59
2023-09-08 04:13:00,SystemResetWarning,0835.3,4.99,000.00,028.1,025.9,000.0,036.4,029.5,15.3,0000.0,0011.59,0003.19,0001.59
2023-09-08 04:14:00,SystemResetWarning,0835.0,5.01,000.00,028.0,024.7,000.0,036.3,029.3,15.3,0000.0,0011.46,0003.19,0001.60
2023-09-08 04:15:00,SystemResetWarning,0835.4,5.00,000.00,027.9,024.7,000.0,036.3,029.2,15.2,0000.0,0011.66,0003.16,0001.61
2023-09-08 04:16:00,SystemResetWarning,0835.3,5.01,000.00,027.9,024.9,000.0,036.3,029.2,15.3,0000.0,0011.82,0003.16,0001.61
2023-09-08 04:17:00,SystemResetWarning,0835.1,5.00,000.00,027.9,025.3,000.0,036.3,029.3,15.2,0000.0,0011.80,0003.17,0001.61
2023-09-08 04:18:00,SystemResetWarning,0834.9,5.00,000.00,027.9,025.6,000.0,036.3,029.4,14.8,0000.0,0011.42,0003.18,0001.60
2023-09-08 04:19:00,SystemResetWarning,0835.0,5.00,000.00,027.9,025.9,000.0,036.3,029.5,15.0,0000.0,0011.50,0003.16,0001.59
2023-09-08 04:20:00,SystemResetWarning,0835.0,5.00,000.00,027.9,026.2,000.0,036.3,029.5,14.7,0000.0,0011.21,0003.12,0001.57
2023-09-08 04:21:00,SystemResetWarning,0835.0,4.99,000.00,028.0,026.5,000.0,036.3,029.6,14.7,0000.0,0010.48,0003.13,0001.55
2023-09-08 04:22:00,SystemResetWarning,0835.0,4.99,000.00,028.0,026.7,000.0,036.3,029.7,14.7,0000.0,0009.65,0003.09,0001.55
2023-09-08 04:23:00,SystemResetWarning,0835.1,5.00,000.00,028.1,026.9,000.0,036.3,029.8,14.6,0000.0,0009.10,0003.05,0001.56
2023-09-08 04:24:00,SystemResetWarning,0835.1,5.00,000.00,028.1,027.0,000.0,036.4,029.8,14.5,0000.0,0008.71,0003.08,0001.56
2023-09-08 04:25:00,SystemResetWarning,0835.1,5.00,000.00,028.1,027.1,000.0,036.4,029.9,14.4,0000.0,0008.65,0003.07,0001.56
2023-09-08 04:26:00,SystemResetWarning,0835.1,5.00,000.00,028.2,027.2,000.0,036.4,029.9,14.5,0000.0,0008.53,0003.10,0001.55
2023-09-08 04:27:00,SystemResetWarning,0835.2,4.99,000.00,028.2,026.7,000.0,036.4,029.8,14.4,0000.0,0009.04,0003.12,0001.56
2023-09-08 04:28:00,SystemResetWarning,0835.1,4.99,000.00,028.1,025.1,000.0,036.4,029.4,14.4,0000.0,0009.35,0003.12,0001.56
2023-09-08 04:29:00,SystemResetWarning,0835.1,5.01,000.00,028.0,024.8,000.0,036.3,029.3,14.5,0000.0,0009.38,0003.10,0001.56
2023-09-08 04:30:00,SystemResetWarning,0835.1,5.01,000.00,027.9,024.9,000.0,036.3,029.2,14.6,0000.0,0009.33,0003.09,0001.56
2023-09-08 04:31:00,SystemResetWarning,0835.1,5.00,000.00,027.9,025.2,000.0,036.3,029.3,14.8,0000.0,0009.28,0003.10,0001.56
2023-09-08 04:32:00,SystemResetWarning,0835.1,5.00,000.00,027.9,025.6,000.0,036.3,029.4,14.8,0000.0,0009.63,0003.12,0001.57
2023-09-08 04:33:00,SystemResetWarning,0835.1,5.00,000.00,027.9,025.9,000.0,036.3,029.5,14.7,0000.0,0010.26,0003.17,0001.58
2023-09-08 04:34:00,SystemResetWarning,0835.2,5.00,000.00,028.0,026.2,000.0,036.3,029.6,14.7,0000.0,0010.38,0003.18,0001.58
2023-09-08 04:35:00,SystemResetWarning,0835.2,4.99,000.00,028.0,026.5,000.0,036.4,029.6,14.7,0000.0,0010.34,0003.15,0001.58
2023-09-08 04:36:00,SystemResetWarning,0835.2,5.00,000.00,028.0,026.7,000.0,036.4,029.7,14.6,0000.0,0010.37,0003.14,0001.58
2023-09-08 04:37:00,SystemResetWarning,0835.3,5.00,000.00,028.1,026.9,000.0,036.4,029.8,14.6,0000.0,0010.45,0003.15,0001.58
2023-09-08 04:38:00,SystemResetWarning,0835.3,5.00,000.00,028.1,027.0,000.0,036.4,029.8,14.6,0000.0,0011.26,0003.12,0001.57
2023-09-08 04:39:00,SystemResetWarning,0835.3,5.00,000.00,028.2,027.1,000.0,036.4,029.9,14.5,0000.0,0011.63,0003.12,0001.57
2023-09-08 04:40:00,SystemResetWarning,0835.3,5.00,000.00,028.2,027.0,000.0,036.5,029.9,14.6,0000.0,0011.72,0003.14,0001.57
2023-09-08 04:41:00,SystemResetWarning,0835.3,4.98,000.00,028.2,025.5,000.0,036.4,029.5,14.6,0000.0,0011.45,0003.15,0001.57
2023-09-08 04:42:00,SystemResetWarning,0835.3,5.02,000.00,028.1,024.7,000.0,036.3,029.4,14.6,0000.0,0011.24,0003.15,0001.57
2023-09-08 04:43:00,SystemResetWarning,0835.2,5.01,000.00,028.0,024.9,000.0,036.3,029.3,14.7,0000.0,0011.41,0003.15,0001.57
2023-09-08 04:44:00,SystemResetWarning,0835.3,5.00,000.00,027.9,025.1,000.0,036.3,029.3,14.7,0000.0,0010.82,0003.14,0001.56
2023-09-08 04:45:00,SystemResetWarning,0835.3,5.00,000.00,027.9,025.5,000.0,036.3,029.4,14.7,0000.0,0011.07,0003.11,0001.56
2023-09-08 04:46:00,SystemResetWarning,0835.3,5.00,000.00,027.9,025.8,000.0,036.3,029.5,14.7,0000.0,0011.27,0003.11,0001.56
2023-09-08 04:47:00,SystemResetWarning,0835.2,5.00,000.00,028.0,026.1,000.0,036.4,029.5,14.7,0000.0,0011.22,0003.13,0001.56
2023-09-08 04:48:00,SystemResetWarning,0835.3,5.01,000.00,028.0,026.4,000.0,036.4,029.6,14.7,0000.0,0011.08,0003.09,0001.55
2023-09-08 04:49:00,SystemResetWarning,0835.4,4.99,000.00,028.0,026.6,000.0,036.4,029.7,14.7,0000.0,0010.19,0003.12,0001.56
2023-09-08 04:50:00,SystemResetWarning,0835.5,5.00,000.00,028.1,026.8,000.0,036.4,029.8,14.7,0000.0,0009.14,0003.17,0001.56
2023-09-08 04:51:00,SystemResetWarning,0835.4,4.99,000.00,028.1,027.0,000.0,036.4,029.8,14.7,0000.0,0009.92,0003.15,0001.57
2023-09-08 04:52:00,SystemResetWarning,0835.4,5.00,000.00,028.2,027.1,000.0,036.5,029.9,14.7,0000.0,0010.41,0003.13,0001.57
2023-09-08 04:53:00,SystemResetWarning,0835.4,5.00,000.00,028.2,027.2,000.0,036.5,029.9,14.6,0000.0,0010.56,0003.10,0001.57
2023-09-08 04:54:00,SystemResetWarning,0835.4,5.00,000.00,028.2,027.0,000.0,036.5,029.9,14.6,0000.0,0010.32,0003.09,0001.58
2023-09-08 04:55:00,SystemResetWarning,0835.4,5.00,000.00,028.2,025.4,000.0,036.4,029.5,14.7,0000.0,0011.50,0003.04,0001.57
2023-09-08 04:56:00,SystemResetWarning,0835.3,5.01,000.00,028.1,024.8,000.0,036.4,029.4,14.8,0000.0,0011.53,0003.01,0001.56
2023-09-08 04:57:00,SystemResetWarning,0835.3,5.01,000.00,028.0,024.9,000.0,036.4,029.4,14.9,0000.0,0012.04,0003.08,0001.56
2023-09-08 04:58:00,SystemResetWarning,0835.4,4.99,000.00,028.0,025.2,000.0,036.4,029.3,15.0,0000.0,0012.38,0003.07,0001.57
2023-09-08 04:59:00,SystemResetWarning,0835.4,5.00,000.00,028.0,025.5,000.0,036.4,029.4,15.2,0000.0,0012.69,0003.10,0001.57
